Powrót do katalogu

STARLINK-37583

AktywnyŁącznośćVLEO
NORAD 69466·PAYLOAD·🇺🇸 United States

Wystrzelony Jun 8, 2026 z Cape Canaveral Space Force Station

Loading…

Następne Przeloty (najbliższe 24 godziny)

TLE

ŚwieżeSource: CelesTrak SupGP

Epoka: Sep 15, 2026, 04:05 UTC

1 69466C 26127Z   26258.17062500 -.00031564  00000+0 -93278-3 0  2583
2 69466  53.1586 190.4310 0001241  81.4430  18.6624 15.34399587    19

Śledź STARLINK-37583 w czasie rzeczywistym z AllMySat

Download on the App Store